Location: Azenweiler
(47.8027°N, 9.4096°E)
Time: 00:45:59
(UTC+00:00)

Cosmos 1814 Rocket - Pass Details

Date: 10 December 2025
Orbit: 740 x 783 km, 74.1° (Epoch: 17 January)

Event Time Altitude Azimuth Distance (km) Brightness Sun altitude
Rises 05:08:57 0° 194° (SSW) 3,205 7.2 -17.8°
Reaches altitude 10° 05:11:18 10° 192° (SSW) 2,291 6.5 -17.4°
Maximum altitude 05:16:28 71° 109° (ESE) 816 4.3 -16.6°
Drops below altitude 10° 05:21:45 10° 26° (NNE) 2,334 6.6 -15.7°
Sets 05:24:10 0° 25° (NNE) 3,271 7.4 -15.3°
